This demonstration page uses our WeatherBlox Daily Observations layout. Learn more.

Left ArrowRight Arrow

Hourly Observations for April 18, 2019

Temp ( °F °C ) Dew Point ( °F °C ) Humidity (%) Winds ( mph kmh ) Pressure ( in mb ) Visibility ( mi km ) Precip ( " mm )
12:53 am 00:53 Clear 68 20 56 13.3 65 65 S 5 7 30.00 1016 10 16 0.00 0.00
1:53 am 01:53 Clear 68 20 56 13.3 65 65 SSE 8 13 29.97 1015 10 16 0.00 0.00
2:53 am 02:53 Clear 67 19.4 56 13.3 68 68 SSE 8 13 29.93 1014 10 16 0.00 0.00
3:53 am 03:53 Clear 67 19.4 56 13.3 68 68 S 7 11 29.91 1013 10 16 0.00 0.00
4:53 am 04:53 Clear 66 18.9 56 13.3 70 70 SSE 6 9 29.91 1013 10 16 0.00 0.00
5:53 am 05:53 Clear 65 18.3 57 13.9 76 76 S 6 9 29.93 1013 10 16 0.00 0.00
6:53 am 06:53 Clear 63 17.2 58 14.4 84 84 SSE 6 9 29.93 1014 10 16 0.00 0.00
7:53 am 07:53 Sunny 60 15.6 58 14.4 93 93 Calm 29.94 1014 10 16 0.00 0.00
8:53 am 08:53 Sunny 65 18.3 60 15.6 84 84 SSE 3 6 29.96 1015 10 16 0.00 0.00
9:53 am 09:53 Mostly Sunny 67 19.4 61 16.1 81 81 SSE 9 15 29.98 1015 10 16 0.00 0.00
10:53 am 10:53 Partly Cloudy 69 20.6 62 16.7 78 78 SSE 7 11 29.98 1015 10 16 0.00 0.00
11:53 am 11:53 Mostly Cloudy 72 22.2 62 16.7 71 71 SSE 10 17 29.98 1015 10 16 0.00 0.00
12:53 pm 12:53 Mostly Cloudy 76 24.4 61 16.1 60 60 SSW 12 19 29.96 1015 10 16 0.00 0.00
1:53 pm 13:53 Partly Cloudy 77 25 60 15.6 56 56 S 15 24 29.91 1013 10 16 0.00 0.00
2:53 pm 14:53 Partly Cloudy 78 25.6 57 13.9 48 48 S 16 26 29.87 1011 10 16 0.00 0.00
3:53 pm 15:53 Mostly Cloudy 80 26.7 58 14.4 47 47 SSE 14 22 29.82 1010 10 16 0.00 0.00
4:53 pm 16:53 Partly Cloudy 79 26.1 57 13.9 47 47 SSE 14 22 29.80 1009 10 16 0.00 0.00
5:53 pm 17:53 Mostly Sunny 79 26.1 58 14.4 49 49 SSE 16 26 29.77 1008 10 16 0.00 0.00
6:53 pm 18:53 Sunny 77 25 58 14.4 52 52 S 12 19 29.77 1008 10 16 0.00 0.00
7:53 pm 19:53 Partly Cloudy 76 24.4 58 14.4 54 54 SSE 12 19 29.76 1008 10 16 0.00 0.00
8:53 pm 20:53 Cloudy 75 23.9 58 14.4 55 55 SE 9 15 29.75 1007 10 16 0.00 0.00
9:53 pm 21:53 Mostly Cloudy 74 23.3 58 14.4 57 57 SSE 9 15 29.76 1008 10 16 0.00 0.00
10:53 pm 22:53 Mostly Cloudy 73 22.8 59 15 62 62 S 10 17 29.74 1007 10 16 0.00 0.00
11:53 pm 23:53 Cloudy 72 22.2 58 14.4 61 61 SSE 16 26 29.70 1006 10 16 0.00 0.00

Powered by AerisWeather